Content
SEND FEEDBACK

Daily
Averages
Monthly
Summary
United States of America

WILMINGTON, NORTH CAROLINA


Home > North America > United States > North Carolina
Elevation: 72 feet     Latitude: 34 16N     Longitude: 077 54W

WEATHER
 
SELECT A DAY
Number of Records: 209,103;   Date Range: 1/1/95 - 9/18/14
 
SHARE

PRINT THIS DATA

[ ← Previous Day ]
WEATHER ALMANAC - APRIL 23, 2013
[ Next Day → ]
[ °C ]   °F
Weather ElementAverageHighLow
Temperature57.5 °F68 °F (4:53 pm)51.1 °F (2:53 am)
Dewpoint49.4 °F52 °F (8:53 pm)48.2 °F (1:18 am)
Humidity76.3 %93 % (11:53 pm)50 % (4:53 pm)
Barometer30.16 in30.21 in (11:53 am)30.12 in (4:53 am)
Wind Speed8.6 mph16.1 mph (12:53 pm)
Wind Gust23 mph (2:53 am)
Weather ElementAverage
Visibility9.8 mi
Wind DirectionSSE (163.7 °)

Weather ElementTotal
Precipitation---
Heating Degree Days5.5 (Base 65)
Growing Degree Days9.6 (Base 50)
Averaged from 27 records on April 23, 2013
WEATHER CONDITIONS BREAKOUT
WIND DIRECTION BREAKOUT
WEATHER BY HOUR - APRIL 23, 2013
[ °C ]   °F
Local TimeTemperatureDewpointHumidityBarometerVisibilityWind DirectionWind SpeedGust SpeedPrecipitationEventsConditions
1:18 AM51.8 °F48.2 °F88 %30.16 in7.0 miNorth (10°)12.7 mph18.4 mph0.00 inRainLight Rain
1:53 AM52.0 °F48.9 °F89 %30.15 in10.0 miNorth (360°)11.5 mph0.00 inOvercast
2:53 AM51.1 °F48.9 °F92 %30.13 in10.0 miNorth (360°)12.7 mph23.0 mph0.00 inOvercast
3:53 AM51.1 °F48.9 °F92 %30.13 in10.0 miNorth (350°)11.5 mph19.6 mphOvercast
4:53 AM51.1 °F48.9 °F92 %30.12 in10.0 miNorth (360°)11.5 mphOvercast
5:53 AM51.1 °F48.9 °F92 %30.13 in10.0 miNNW (340°)9.2 mphOvercast
6:53 AM51.1 °F48.9 °F92 %30.15 in7.0 miNorth (350°)10.4 mphOvercast
7:53 AM52.0 °F48.9 °F89 %30.16 in10.0 miNorth (10°)13.8 mphOvercast
8:53 AM52.0 °F48.9 °F89 %30.18 in10.0 miNorth (360°)13.8 mph19.6 mphOvercast
9:53 AM54.0 °F48.9 °F83 %30.19 in10.0 miNorth (360°)10.4 mphOvercast
10:18 AM53.6 °F48.2 °F82 %30.19 in10.0 miCalmOvercast
10:53 AM55.0 °F48.9 °F80 %30.20 in10.0 miNorth (10°)11.5 mphOvercast
11:53 AM57.9 °F48.9 °F72 %30.21 in10.0 miNNE (20°)12.7 mphOvercast
12:53 PM60.1 °F48.9 °F67 %30.19 in10.0 miNorth (360°)16.1 mphOvercast
1:45 PM64.4 °F50.0 °F59 %30.18 in10.0 miNorth (350°)13.8 mph17.3 mphScattered Clouds
1:53 PM63.0 °F50.0 °F63 %30.18 in10.0 miNNW (330°)10.4 mph17.3 mphMostly Cloudy
2:05 PM64.4 °F48.2 °F56 %30.18 in10.0 miNorth (350°)9.2 mph19.6 mphScattered Clouds
2:53 PM66.9 °F50.0 °F54 %30.16 in10.0 miNorth (10°)11.5 mphClear
3:53 PM66.9 °F48.9 °F52 %30.14 in10.0 miNE (40°)9.2 mphClear
4:53 PM68.0 °F48.9 °F50 %30.14 in10.0 miNNE (20°)11.5 mphClear
5:53 PM68.0 °F48.9 °F50 %30.13 in10.0 miNNE (30°)5.8 mphClear
6:53 PM66.9 °F50.0 °F54 %30.14 in10.0 miNE (40°)3.5 mphClear
7:53 PM60.1 °F51.1 °F72 %30.15 in10.0 miCalmClear
8:53 PM57.9 °F52.0 °F81 %30.17 in10.0 miCalmClear
9:53 PM55.9 °F52.0 °F87 %30.18 in10.0 miCalmClear
10:53 PM54.0 °F51.1 °F90 %30.19 in10.0 miCalmClear
11:53 PM52.0 °F50.0 °F93 %30.18 in10.0 miCalmClear
Hourly data recorded from KILM, located miles away from Wilmington, North Carolina







STORIES FROM OUR PARTNERS